H1 CPF 2 NER 2024 8 23 9 236 01 glonass143 H2 2007501 9143 46805 2024 8 23 0 0 0 2024 8 26 23 45 0 900 1 1 0 0 0 1 H9 10 0 60545 0.00000 0 10461752.980 -3550804.408 23005115.599 10 0 60545 900.00000 0 11841118.027 -1103632.398 22578186.655 10 0 60545 1800.00000 0 13351747.450 1170284.226 21713335.781 10 0 60545 2700.00000 0 14944780.872 3222517.747 20427231.752 10 0 60545 3600.00000 0 16564393.054 5014850.302 18744714.472 10 0 60545 4500.00000 0 18150067.522 6520619.145 16698324.686 10 0 60545 5400.00000 0 19639088.590 7725576.534 14327684.064 10 0 60545 6300.00000 0 20969148.264 8628228.729 11678736.494 10 0 60545 7200.00000 0 22080959.094 9239640.156 8802864.247 10 0 60545 8100.00000 0 22920763.253 9582711.183 5755895.391 10 0 60545 9000.00000 0 23442631.926 9690960.071 2597021.214 10 0 60545 9900.00000 0 23610457.360 9606860.756 -612355.357 10 0 60545 10800.00000 0 23399552.599 9379807.093 -3809817.676 10 0 60545 11700.00000 0 22797790.215 9063790.273 -6933155.741 10 0 60545 12600.00000 0 21806230.734 8714888.557 -9921584.389 10 0 60545 13500.00000 0 20439213.119 8388676.610 -12716934.611 10 0 60545 14400.00000 0 18723902.434 8137665.281 -15264793.880 10 0 60545 15300.00000 0 16699313.000 8008881.397 -17515572.356 10 0 60545 16200.00000 0 14414847.517 8041691.086 -19425473.549 10 0 60545 17100.00000 0 11928413.175 8265959.711 -20957350.148 10 0 60545 18000.00000 0 9304193.538 8700627.010 -22081428.145 10 0 60545 18900.00000 0 6610169.375 9352758.239 -22775885.268 10 0 60545 19800.00000 0 3915491.926 10217111.856 -23027272.747 10 0 60545 20700.00000 0 1287818.090 11276242.243 -22830772.590 10 0 60545 21600.00000 0 -1209281.700 12501133.374 -22190285.857 10 0 60545 22500.00000 0 -3518735.485 13852336.841 -21118350.668 10 0 60545 23400.00000 0 -5592101.961 15281566.437 -19635891.956 10 0 60545 24300.00000 0 -7391335.090 16733682.244 -17771808.214 10 0 60545 25200.00000 0 -8890108.967 18148980.835 -15562403.515 10 0 60545 26100.00000 0 -10074649.168 19465695.297 -13050676.136 10 0 60545 27000.00000 0 -10944037.677 20622599.952 -10285477.814 10 0 60545 27900.00000 0 -11509980.508 21561610.303 -7320560.185 10 0 60545 28800.00000 0 -11796049.661 22230268.888 -4213527.224 10 0 60545 29700.00000 0 -11836433.109 22584012.570 -1024714.296 10 0 60545 30600.00000 0 -11674247.065 22588126.080 2183984.154 10 0 60545 31500.00000 0 -11359483.019 22219299.765 5350315.226 10 0 60545 32400.00000 0 -10946677.209 21466726.312 8412873.076 10 0 60545 33300.00000 0 -10492401.566 20332690.479 11312285.919 10 0 60545 34200.00000 0 -10052682.409 18832627.198 13992361.653 10 0 60545 35100.00000 0 -9680455.864 16994645.529 16401170.282 10 0 60545 36000.00000 0 -9423167.145 14858538.115 18492042.789 10 0 60545 36900.00000 0 -9320614.542 12474317.050 20224467.811 10 0 60545 37800.00000 0 -9403128.555 9900336.469 21564869.636 10 0 60545 38700.00000 0 -9690162.508 7201079.031 22487253.320 10 0 60545 39600.00000 0 -10189353.829 4444697.163 22973705.161 10 0 60545 40500.00000 0 -10896095.637 1700409.831 23014739.432 10 0 60545 41400.00000 0 -11793637.204 -964138.572 22609484.890 10 0 60545 42300.00000 0 -12853709.956 -3485449.001 21765707.414 10 0 60545 43200.00000 0 -14037653.950 -5806562.840 20499667.858 10 0 60545 44100.00000 0 -15297998.940 -7879182.989 18835817.136 10 0 60545 45000.00000 0 -16580435.074 -9665433.641 16806333.426 10 0 60545 45900.00000 0 -17826091.817 -11139186.173 14450509.303 10 0 60545 46800.00000 0 -18974030.374 -12286896.300 11813999.479 10 0 60545 47700.00000 0 -19963845.501 -13107917.735 8947942.730 10 0 60545 48600.00000 0 -20738267.422 -13614279.405 5907974.201 10 0 60545 49500.00000 0 -21245654.008 -13829935.729 2753146.764 10 0 60545 50400.00000 0 -21442267.449 -13789521.709 -455217.676 10 0 60545 51300.00000 0 -21294238.373 -13536665.669 -3654724.360 10 0 60545 52200.00000 0 -20779133.205 -13121931.405 -6783125.478 10 0 60545 53100.00000 0 -19887057.225 -12600477.465 -9779538.989 10 0 60545 54000.00000 0 -18621245.409 -12029533.415 -12585641.774 10 0 60545 54900.00000 0 -16998114.803 -11465800.940 -15146812.932 10 0 60545 55800.00000 0 -15046775.178 -10962890.744 -17413204.047 10 0 60545 56700.00000 0 -12808017.616 -10568904.695 -19340714.914 10 0 60545 57600.00000 0 -10332822.876 -10324266.315 -20891855.327 10 0 60545 58500.00000 0 -7680451.624 -10259891.977 -22036475.933 10 0 60545 59400.00000 0 -4916196.129 -10395780.505 -22752354.053 10 0 60545 60300.00000 0 -2108887.145 -10740080.964 -23025623.318 10 0 60545 61200.00000 0 671740.241 -11288678.012 -22851039.167 10 0 60545 62100.00000 0 3357712.299 -12025312.220 -22232075.519 10 0 60545 63000.00000 0 5885403.364 -12922230.107 -21180851.171 10 0 60545 63900.00000 0 8197936.462 -13941336.284 -19717887.794 10 0 60545 64800.00000 0 10247298.817 -15035798.910 -17871704.567 10 0 60545 65700.00000 0 11996085.213 -16152040.655 -15678257.618 10 0 60545 66600.00000 0 13418797.861 -17232031.043 -13180235.415 10 0 60545 67500.00000 0 14502650.097 -18215783.485 -10426224.032 10 0 60545 68400.00000 0 15247842.026 -19043951.640 -7469758.724 10 0 60545 69300.00000 0 15667298.378 -19660415.611 -4368280.506 10 0 60545 70200.00000 0 15785881.401 -20014748.972 -1182018.305 10 0 60545 71100.00000 0 15639113.552 -20064462.667 2027181.385 10 0 60545 72000.00000 0 15271465.264 -19776931.315 5197054.308 10 0 60545 72900.00000 0 14734281.119 -19130920.864 8266124.307 10 0 60545 73800.00000 0 14083432.732 -18117653.368 11174891.821 10 0 60545 74700.00000 0 13376797.816 -16741364.070 13866982.120 10 0 60545 75600.00000 0 12671671.877 -15019327.273 16290231.381 10 0 60545 76500.00000 0 12022221.470 -12981349.492 18397690.175 10 0 60545 77400.00000 0 11477085.866 -10668750.531 20148525.608 10 0 60545 78300.00000 0 11077227.565 -8132874.157 21508805.541 10 0 60545 79200.00000 0 10854121.479 -5433189.317 22452150.541 10 0 60545 80100.00000 0 10828358.435 -2635059.629 22960241.698 10 0 60545 81000.00000 0 11008721.427 192727.679 23023175.054 10 0 60545 81900.00000 0 11391773.415 2980572.347 22639656.072 10 0 60545 82800.00000 0 11961974.370 5660704.388 21817030.291 10 0 60545 83700.00000 0 12692323.332 8169751.900 20571149.196 10 0 60545 84600.00000 0 13545499.512 10451128.039 18926073.127 10 0 60545 85500.00000 0 14475455.567 12457138.965 16913615.992 10 0 60546 0.00000 0 15429397.162 14150725.670 14572739.665 10 0 60546 900.00000 0 16350067.018 15506768.372 11948807.339 10 0 60546 1800.00000 0 17178236.728 16512897.096 9092712.438 10 0 60546 2700.00000 0 17855303.368 17169777.582 6059895.017 10 0 60546 3600.00000 0 18325880.033 17490858.254 2909267.263 10 0 60546 4500.00000 0 18540270.878 17501589.911 -297932.288 10 0 60546 5400.00000 0 18456725.160 17238151.001 -3499333.135 10 0 60546 6300.00000 0 18043373.789 16745732.592 -6632651.992 10 0 60546 7200.00000 0 17279765.132 16076455.971 -9636912.175 10 0 60546 8100.00000 0 16157933.715 15287011.599 -12453638.531 10 0 60546 9000.00000 0 14682955.203 14436120.069 -15028003.673 10 0 60546 9900.00000 0 12872962.922 13581923.329 -17309902.289 10 0 60546 10800.00000 0 10758624.060 12779417.312 -19254931.951 10 0 60546 11700.00000 0 8382096.559 12078035.232 -20825260.875 10 0 60546 12600.00000 0 5795509.762 11519484.157 -21990365.537 10 0 60546 13500.00000 0 3059031.866 11135926.528 -22727623.876 10 0 60546 14400.00000 0 238604.511 10948583.402 -23022752.784 10 0 60546 15300.00000 0 -2596561.223 10966818.163 -22870081.785 10 0 60546 16200.00000 0 -5376623.413 11187738.967 -22272658.020 10 0 60546 17100.00000 0 -8033772.989 11596336.169 -21242180.995 10 0 60546 18000.00000 0 -10504812.137 12166148.394 -19798768.744 10 0 60546 18900.00000 0 -12733540.782 12860428.546 -17970560.348 10 0 60546 19800.00000 0 -14672852.657 13633760.082 -15793162.796 10 0 60546 20700.00000 0 -16286454.685 14434054.853 -13308953.185 10 0 60546 21600.00000 0 -17550139.247 15204847.818 -10566250.068 10 0 60546 22500.00000 0 -18452557.664 15887791.468 -7618370.206 10 0 60546 23400.00000 0 -18995464.137 16425244.407 -4522589.372 10 0 60546 24300.00000 0 -19193421.567 16762844.629 -1339027.620 10 0 60546 25200.00000 0 -19072983.281 16851958.805 1870519.040 10 0 60546 26100.00000 0 -18671386.526 16651904.118 5043777.623 10 0 60546 27000.00000 0 -18034814.010 16131848.962 8119204.348 10 0 60546 27900.00000 0 -17216297.687 15272312.328 11037174.624 10 0 60546 28800.00000 0 -16273353.706 14066198.695 13741133.847 10 0 60546 29700.00000 0 -15265448.411 12519324.677 16178687.095 10 0 60546 30600.00000 0 -14251401.987 10650414.923 18302607.165 10 0 60546 31500.00000 0 -13286838.601 8490566.796 20071742.128 10 0 60546 32400.00000 0 -12421789.646 6082205.326 21451805.698 10 0 60546 33300.00000 0 -11698550.018 3477570.834 22416035.969 10 0 60546 34200.00000 0 -11149876.710 736800.875 22945710.507 10 0 60546 35100.00000 0 -10797604.667 -2074315.344 23030508.443 10 0 60546 36000.00000 0 -10651737.546 -4886818.447 22668712.829 10 0 60546 36900.00000 0 -10710051.393 -7631194.918 21867249.306 10 0 60546 37800.00000 0 -10958228.019 -10240020.669 20641559.943 10 0 60546 38700.00000 0 -11370512.979 -12650523.797 19015313.949 10 0 60546 39600.00000 0 -11910871.166 -14806961.114 17019959.894 10 0 60546 40500.00000 0 -12534592.294 -16662710.421 14694126.955 10 0 60546 41400.00000 0 -13190279.459 -18181991.849 12082885.629 10 0 60546 42300.00000 0 -13822137.678 -19341146.610 9236881.181 10 0 60546 43200.00000 0 -14372466.229 -20129419.682 6211355.817 10 0 60546 44100.00000 0 -14784249.608 -20549213.555 3065078.013 10 0 60546 45000.00000 0 -15003737.192 -20615802.190 -140800.304 10 0 60546 45900.00000 0 -14982901.797 -20356517.238 -3343936.279 10 0 60546 46800.00000 0 -14681671.960 -19809440.859 -6482014.637 10 0 60546 47700.00000 0 -14069842.190 -19021660.616 -9493967.592 10 0 60546 48600.00000 0 -13128578.856 -18047160.574 -12321171.473 10 0 60546 49500.00000 0 -11851456.524 -16944438.351 -14908595.825 10 0 60546 50400.00000 0 -10244979.488 -15773949.500 -17205881.675 10 0 60546 51300.00000 0 -8328565.149 -14595487.919 -19168327.297 10 0 60546 52200.00000 0 -6133988.710 -13465613.514 -20757761.852 10 0 60546 53100.00000 0 -3704311.551 -12435236.139 -21943289.663 10 0 60546 54000.00000 0 -1092337.393 -11547457.932 -22701890.726 10 0 60546 54900.00000 0 1641339.787 -10835764.944 -23018866.037 10 0 60546 55800.00000 0 4430615.026 -10322643.913 -22888119.432 10 0 60546 56700.00000 0 7206384.161 -10018681.897 -22312270.952 10 0 60546 57600.00000 0 9899183.900 -9922185.884 -21302599.954 10 0 60546 58500.00000 0 12441850.611 -10019337.538 -19878819.512 10 0 60546 59400.00000 0 14772087.683 -10284875.587 -18068686.852 10 0 60546 60300.00000 0 16834835.183 -10683276.163 -15907457.646 10 0 60546 61200.00000 0 18584343.862 -11170380.420 -13437195.049 10 0 60546 62100.00000 0 19985868.029 -11695399.961 -10705947.127 10 0 60546 63000.00000 0 21016907.762 -12203214.762 -7766808.843 10 0 60546 63900.00000 0 21667949.832 -12636865.967 -4676887.131 10 0 60546 64800.00000 0 21942677.783 -12940137.861 -1496189.395 10 0 60546 65700.00000 0 21857643.798 -13060119.622 1713542.688 10 0 60546 66600.00000 0 21441417.578 -12949638.435 4890031.176 10 0 60546 67500.00000 0 20733249.238 -12569461.138 7971668.233 10 0 60546 68400.00000 0 19781303.524 -11890171.356 10898707.466 10 0 60546 69300.00000 0 18640540.320 -10893642.929 13614417.211 10 0 60546 70200.00000 0 17370330.988 -9574047.336 16066173.773 10 0 60546 71100.00000 0 16031910.754 -7938352.411 18206473.991 10 0 60546 72000.00000 0 14685773.867 -6006290.819 19993848.217 10 0 60546 72900.00000 0 13389120.266 -3809798.702 21393656.844 10 0 60546 73800.00000 0 12193460.052 -1391946.836 22378755.853 10 0 60546 74700.00000 0 11142475.273 1194592.573 22930019.230 10 0 60546 75600.00000 0 10270227.711 3889481.189 23036708.732 10 0 60546 76500.00000 0 9599786.953 6626973.243 22696684.184 10 0 60546 77400.00000 0 9142335.645 9338405.510 21916450.173 10 0 60546 78300.00000 0 8896789.118 11954816.832 20711037.900 10 0 60546 79200.00000 0 8849945.318 14409589.896 19103723.743 10 0 60546 80100.00000 0 8977158.990 16641006.650 17125589.007 10 0 60546 81000.00000 0 9243512.220 18594611.939 14814928.290 10 0 60546 81900.00000 0 9605432.587 20225287.409 12216516.702 10 0 60546 82800.00000 0 10012691.257 21498949.313 9380749.140 10 0 60546 83700.00000 0 10410696.997 22393799.164 6362667.450 10 0 60546 84600.00000 0 10742989.309 22901074.603 3220893.803 10 0 60546 85500.00000 0 10953824.949 23025268.606 16490.901 10 0 60547 0.00000 0 10990747.762 22783807.600 -3188228.352 10 0 60547 900.00000 0 10807032.041 22206201.643 -6330919.764 10 0 60547 1800.00000 0 10363894.688 21332702.932 -9350426.480 10 0 60547 2700.00000 0 9632381.125 20212528.967 -12187978.428 10 0 60547 3600.00000 0 8594843.559 18901726.028 -14788343.961 10 0 60547 4500.00000 0 7245947.583 17460763.583 -17100912.078 10 0 60547 5400.00000 0 5593163.151 15951961.706 -19080683.177 10 0 60547 6300.00000 0 3656717.872 14436860.534 -20689148.596 10 0 60547 7200.00000 0 1469013.431 12973643.043 -21895041.577 10 0 60547 8100.00000 0 -926471.342 11614719.875 -22674945.108 10 0 60547 9000.00000 0 -3476745.628 10404577.752 -23013745.056 10 0 60547 9900.00000 0 -6121275.103 9377981.655 -22904920.142 10 0 60547 10800.00000 0 -8794272.090 8558605.655 -22350663.608 10 0 60547 11700.00000 0 -11427212.259 7958149.051 -21361834.648 10 0 60547 12600.00000 0 -13951473.331 7575973.862 -19957740.993 10 0 60547 13500.00000 0 -16300986.283 7399277.663 -18165757.234 10 0 60547 14400.00000 0 -18414789.038 7403793.203 -16020786.580 10 0 60547 15300.00000 0 -20239376.752 7554984.060 -13564576.768 10 0 60547 16200.00000 0 -21730751.378 7809684.738 -10844903.632 10 0 60547 17100.00000 0 -22856085.766 8118114.940 -7914638.379 10 0 60547 18000.00000 0 -23594933.753 8426182.097 -4830716.982 10 0 60547 18900.00000 0 -23939936.706 8677974.123 -1653031.948 10 0 60547 19800.00000 0 -23896998.149 8818336.521 1556731.756 10 0 60547 20700.00000 0 -23484920.366 8795424.524 4736293.713 10 0 60547 21600.00000 0 -22734519.369 8563122.167 7823984.627 10 0 60547 22500.00000 0 -21687256.452 8083225.970 10759938.994 10 0 60547 23400.00000 0 -20393444.502 7327300.918 13487250.834 10 0 60547 24300.00000 0 -18910104.914 6278130.378 15953070.423 10 0 60547 25200.00000 0 -17298565.139 4930698.567 18109621.323 10 0 60547 26100.00000 0 -15621897.408 3292663.829 19915118.678 10 0 60547 27000.00000 0 -13942305.440 1384302.087 21334571.851 10 0 60547 27900.00000 0 -12318567.716 -762078.215 22340456.700 10 0 60547 28800.00000 0 -10803643.337 -3103226.584 22913245.259 10 0 60547 29700.00000 0 -9442539.511 -5586502.448 23041783.161 10 0 60547 30600.00000 0 -8270528.788 -8151825.778 22723507.839 10 0 60547 31500.00000 0 -7311789.696 -10733946.984 21964503.247 10 0 60547 32400.00000 0 -6578526.950 -13264943.483 20779389.719 10 0 60547 33300.00000 0 -6070607.617 -15676840.746 19191050.370 10 0 60547 34200.00000 0 -5775728.313 -17904250.095 17230198.402 10 0 60547 35100.00000 0 -5670106.467 -19886914.441 14934792.572 10 0 60547 36000.00000 0 -5719666.786 -21572056.458 12349310.981 10 0 60547 36900.00000 0 -5881673.205 -22916431.351 9523896.191 10 0 60547 37800.00000 0 -6106737.709 -23887998.297 6513387.430 10 0 60547 38700.00000 0 -6341121.188 -24467140.160 3376258.071 10 0 60547 39600.00000 0 -6529228.812 -24647379.775 173478.899 10 0 60547 40500.00000 0 -6616193.749 -24435562.169 -3032670.561 10 0 60547 41400.00000 0 -6550438.954 -23851494.571 -6179819.035 10 0 60547 42300.00000 0 -6286107.354 -22927059.073 -9206724.287 10 0 60547 43200.00000 0 -5785256.131 -21704835.235 -12054473.022 10 0 60547 44100.00000 0 -5019720.704 -20236290.830 -14667635.600 10 0 60547 45000.00000 0 -3972568.034 -18579617.296 -16995352.128 10 0 60547 45900.00000 0 -2639076.340 -16797301.516 -18992328.101 10 0 60547 46800.00000 0 -1027198.492 -14953536.613 -20619719.751 10 0 60547 47700.00000 0 842511.678 -13111581.092 -21845891.605 10 0 60547 48600.00000 0 2937508.124 -11331177.539 -22647031.581 10 0 60547 49500.00000 0 5214371.768 -9666139.253 -23007611.881 10 0 60547 50400.00000 0 7620393.929 -8162205.821 -22920687.095 10 0 60547 51300.00000 0 10095558.360 -6855256.928 -22388024.165 10 0 60547 52200.00000 0 12574839.540 -5769958.403 -21420062.164 10 0 60547 53100.00000 0 14990721.670 -4918896.112 -20035703.067 10 0 60547 54000.00000 0 17275833.566 -4302232.620 -18261937.973 10 0 60547 54900.00000 0 19365589.940 -3907899.518 -16133316.302 10 0 60547 55800.00000 0 21200729.144 -3712315.762 -13691268.559 10 0 60547 56700.00000 0 22729641.965 -3681600.234 -10983296.035 10 0 60547 57600.00000 0 23910394.699 -3773226.008 -8062043.386 10 0 60547 58500.00000 0 24712362.619 -3938045.261 -4984272.387 10 0 60547 59400.00000 0 25117406.292 -4122598.283 -1809757.061 10 0 60547 60300.00000 0 25120542.375 -4271608.179 1399878.144 10 0 60547 61200.00000 0 24730081.748 -4330555.206 4582354.231 10 0 60547 62100.00000 0 23967230.136 -4248221.509 7675944.278 10 0 60547 63000.00000 0 22865168.852 -3979098.478 10620667.293 10 0 60547 63900.00000 0 21467654.915 -3485554.891 13359446.298 10 0 60547 64800.00000 0 19827199.699 -2739674.246 15839208.467 10 0 60547 65700.00000 0 18002902.604 -1724683.671 18011906.568 10 0 60547 66600.00000 0 16058030.293 -435913.946 19835442.574 10 0 60547 67500.00000 0 14057442.293 1118750.257 21274476.383 10 0 60547 68400.00000 0 12064969.773 2918949.662 22301104.841 10 0 60547 69300.00000 0 10140855.975 4932457.030 22895398.691 10 0 60547 70200.00000 0 8339364.010 7116287.253 23045787.641 10 0 60547 71100.00000 0 6706650.624 9418266.272 22749286.483 10 0 60547 72000.00000 0 5278993.578 11778995.183 22011557.846 10 0 60547 72900.00000 0 4081445.647 14134129.563 20846810.076 10 0 60547 73800.00000 0 3126970.722 16416880.777 19277531.511 10 0 60547 74700.00000 0 2416097.635 18560636.523 17334065.388 10 0 60547 75600.00000 0 1937105.926 20501592.506 15054032.471 10 0 60547 76500.00000 0 1666735.625 22181286.172 12481611.448 10 0 60547 77400.00000 0 1571391.233 23548926.907 9666689.962 10 0 60547 78300.00000 0 1608789.197 24563425.118 6663901.894 10 0 60547 79200.00000 0 1729979.274 25195034.732 3531568.993 10 0 60547 80100.00000 0 1881654.136 25426539.512 330567.269 10 0 60547 81000.00000 0 2008648.990 25253932.586 -2876859.682 10 0 60547 81900.00000 0 2056524.601 24686559.838 -6028316.817 10 0 60547 82800.00000 0 1974123.262 23746720.506 -9062478.801 10 0 60547 83700.00000 0 1715988.164 22468741.357 -11920291.466 10 0 60547 84600.00000 0 1244542.313 20897563.242 -14546129.276 10 0 60547 85500.00000 0 531933.276 19086899.550 -16888885.277 10 0 60548 0.00000 0 -438535.570 17097044.457 -18902971.489 10 0 60548 900.00000 0 -1671449.696 14992422.287 -20549210.770 10 0 60548 1800.00000 0 -3158844.145 12838983.994 -21795599.916 10 0 60548 2700.00000 0 -4880301.614 10701556.627 -22617932.770 10 0 60548 3600.00000 0 -6803583.472 8641259.580 -23000268.680 10 0 60548 4500.00000 0 -8885768.425 6713094.596 -22935238.680 10 0 60548 5400.00000 0 -11074851.610 4963810.043 -22424183.721 10 0 60548 6300.00000 0 -13311737.697 3430127.993 -21477122.725 10 0 60548 7200.00000 0 -15532544.933 2137407.165 -20112551.518 10 0 60548 8100.00000 0 -17671124.161 1098796.285 -18357076.926 10 0 60548 9000.00000 0 -19661687.786 314911.707 -16244893.430 10 0 60548 9900.00000 0 -21441439.057 -225948.904 -13817112.820 10 0 60548 10800.00000 0 -22953092.039 -547067.612 -11120960.082 10 0 60548 11700.00000 0 -24147177.207 -682074.749 -8208851.333 10 0 60548 12600.00000 0 -24984036.588 -673278.442 -5137371.993 10 0 60548 13500.00000 0 -25435425.416 -569626.945 -1966175.275 10 0 60548 14400.00000 0 -25485653.791 -424390.962 1243177.342 10 0 60548 15300.00000 0 -25132221.151 -292664.745 4428410.877 10 0 60548 16200.00000 0 -24385917.671 -228792.213 7527743.482 10 0 60548 17100.00000 0 -23270388.979 -283827.244 10481081.477 10 0 60548 18000.00000 0 -21821182.988 -503135.650 13231179.723 10 0 60548 18900.00000 0 -20084319.175 -924240.139 15724745.097 10 0 60548 19800.00000 0 -18114440.289 -1574999.260 17913462.271 10 0 60548 20700.00000 0 -15972623.656 -2472197.130 19754922.531 10 0 60548 21600.00000 0 -13723943.035 -3620603.615 21213438.512 10 0 60548 22500.00000 0 -11434882.016 -5012544.978 22260729.895 10 0 60548 23400.00000 0 -9170705.827 -6628003.888 22876467.572 10 0 60548 24300.00000 0 -6992899.865 -8435245.757 23048666.366 10 0 60548 25200.00000 0 -4956780.349 -10391946.730 22773919.042 10 0 60548 26100.00000 0 -3109375.404 -12446777.859 22057467.130 10 0 60548 27000.00000 0 -1487663.660 -14541381.089 20913106.828 10 0 60548 27900.00000 0 -117242.853 -16612656.372 19362931.185 10 0 60548 28800.00000 0 988516.745 -18595265.966 17436912.604 10 0 60548 29700.00000 0 1828799.226 -20424252.639 15172332.659 10 0 60548 30600.00000 0 2415136.915 -22037663.226 12613069.102 10 0 60548 31500.00000 0 2770680.056 -23379068.207 9808752.833 10 0 60548 32400.00000 0 2928973.166 -24399871.746 6813810.300 10 0 60548 33300.00000 0 2932289.804 -25061314.920 3686409.330 10 0 60548 34200.00000 0 2829596.299 -25336087.240 487328.668 10 0 60548 35100.00000 0 2674231.004 -25209477.824 -2721226.637 10 0 60548 36000.00000 0 2521397.973 -24680016.774 -5876840.510 10 0 60548 36900.00000 0 2425582.141 -23759578.801 -8918107.336 10 0 60548 37800.00000 0 2437996.621 -22472943.969 -11785834.963 10 0 60548 38700.00000 0 2604171.557 -20856833.461 -14424204.858 10 0 60548 39600.00000 0 2961787.955 -18958460.613 -16781865.875 10 0 60548 40500.00000 0 3538849.503 -16833658.091 -18812939.646 10 0 60548 41400.00000 0 4352270.912 -14544659.881 -20477917.489 10 0 60548 42300.00000 0 5406943.540 -12157631.371 -21744431.142 10 0 60548 43200.00000 0 6695318.658 -9740051.169 -22587882.316 10 0 60548 44100.00000 0 8197526.757 -7358054.264 -22991919.057 10 0 60548 45000.00000 0 9882028.536 -5073847.527 -22948749.989 10 0 60548 45900.00000 0 11706770.750 -2943305.127 -22459290.809 10 0 60548 46800.00000 0 13620798.866 -1013843.567 -21533140.627 10 0 60548 47700.00000 0 15566259.192 677335.875 -20188389.055 10 0 60548 48600.00000 0 17480706.864 2104565.211 -18451258.176 10 0 60548 49500.00000 0 19299623.208 3254534.773 -16355586.637 10 0 60548 50400.00000 0 20959037.175 4126592.415 -13942166.165 10 0 60548 51300.00000 0 22398141.226 4732506.225 -11257943.616 10 0 60548 52200.00000 0 23561792.232 5095702.616 -8355104.263 10 0 60548 53100.00000 0 24402792.776 5250013.626 -5290054.414 10 0 60548 54000.00000 0 24883857.492 5237987.865 -2122323.342 10 0 60548 54900.00000 0 24979182.337 5108837.729 1086593.867 10 0 60548 55800.00000 0 24675551.349 4916110.700 4274429.827 10 0 60548 56700.00000 0 23972934.925 4715183.914 7379351.371 10 0 60548 57600.00000 0 22884554.954 4560688.410 10341155.664 10 0 60548 58500.00000 0 21436414.405 4503972.149 13102432.737 10 0 60548 59400.00000 0 19666311.325 4590709.031 15609672.245 10 0 60548 60300.00000 0 17622378.465 4858754.750 17814293.516 10 0 60548 61200.00000 0 15361209.373 5336339.821 19673579.558 10 0 60548 62100.00000 0 12945648.661 6040675.903 21151497.770 10 0 60548 63000.00000 0 10442337.756 6977034.228 22219392.300 10 0 60548 63900.00000 0 7919117.378 8138335.350 22856535.409 10 0 60548 64800.00000 0 5442393.574 9505268.220 23050527.791 10 0 60548 65700.00000 0 3074575.545 11046934.738 22797540.481 10 0 60548 66600.00000 0 871690.466 12721994.199 22102393.691 10 0 60548 67500.00000 0 -1118726.764 14480261.350 20978470.761 10 0 60548 68400.00000 0 -2859382.142 16264692.905 19447468.249 10 0 60548 69300.00000 0 -4324537.592 18013680.979 17538986.081 10 0 60548 70200.00000 0 -5500838.243 19663558.858 15289964.610 10 0 60548 71100.00000 0 -6387617.869 21151215.232 12743978.316 10 0 60548 72000.00000 0 -6996669.982 22416707.899 9950398.791 10 0 60548 72900.00000 0 -7351494.480 23405767.432 6963442.329 10 0 60548 73800.00000 0 -7486051.698 24072085.365 3841119.998 10 0 60548 74700.00000 0 -7443076.726 24379289.958 644110.416 10 0 60548 75600.00000 0 -7272025.558 24302525.430 -2565422.790 10 0 60548 76500.00000 0 -7026740.545 23829567.002 -5725045.323 10 0 60548 77400.00000 0 -6762934.778 22961423.585 -8773273.984 10 0 60548 78300.00000 0 -6535602.925 21712401.637 -11650781.154 10 0 60548 79200.00000 0 -6396469.334 20109626.568 -14301557.613 10 0 60548 80100.00000 0 -6391582.677 18192041.136 -16674010.097 10 0 60548 81000.00000 0 -6559160.141 16008922.507 -18721971.501 10 0 60548 81900.00000 0 -6927773.473 13617979.964 -20405603.555 10 0 60548 82800.00000 0 -7514954.537 11083113.020 -21692174.106 10 0 60548 83700.00000 0 -8326280.051 8471923.773 -22556693.878 10 0 60548 84600.00000 0 -9354974.768 5853087.510 -22982400.531 10 0 60548 85500.00000 0 -10582050.326 3293691.322 -22961080.950 99